Погода в Железинке

Казахстан     53°32′18″N   75°19′15″E
темп.,
°C
ветер,
м/с
пор.,
м/с
влажн.,
%
обл.,
%
осадки,
мм/ч
давл.,
гПа
погр.,
м
19 января, ср
ср1900:00−14юз489593 0.0 1027102
03:00−17юз36975 0.0 102867
06:00−17юз36975 0.0 102866
09:00−18юз249876 0.0 102843
12:00−14юз35935 0.0 1028118
15:00−12юз359218 0.0 1028116
18:00−18юз22975 0.0 102933
21:00−18юз22985 0.0 102933
20 января, чт
чт2000:00−19юз22995 0.0 103033
03:00−18юз34955 0.0 103147
06:00−20юз229726 0.0 103126
09:00−21юз22975 0.0 103321
12:00−15юз238973 0.0 103481
15:00−13ююз238874 0.0 103368
18:00−19ююз229588 0.0 103410
21:00−21ю229887 0.0 103411
21 января, пт
пт2100:00−22ююв229981 0.0 103410
03:00−21юв2210062 0.0 103415
06:00−21юв2210056 0.0 103326
09:00−22вюв2210051 0.0 103321
12:00−15вюв35955 0.0 1032110
15:00−13вюв249229 0.0 103193
18:00−18в329760 0.0 103226
21:00−19вюв339799 0.0 103239
22 января, сб
сб2200:00−18вюв2295100 0.0 103317
03:00−21в22975 0.0 103315
06:00−22в229851 0.0 103413
09:00−23вюв2210047 0.0 103425
12:00−16в24935 0.0 103592
15:00−13в24925 0.0 1034105
18:00−19в229811 0.0 103526
21:00−20в3310046 0.0 103638
23 января, вс
вс2300:00−19в349821 0.0 103744
03:00−20в3410027 0.0 103651
06:00−19в369962 0.0 103672
09:00−20в369953 0.0 103764
12:00−16в369547 0.0 1038149
15:00−14всв379374 0.0 1037177
18:00−17всв3696100 0.0 103866
21:00−19всв349765 0.0 103852